SCP
0 0 0 0 0 0 0 0 0 0 0 0 0 0 0 0 0 0 0 0 0 0 0 0 0 0 0 0 0 0 0 0 0 0 0 0 0 0
0 0 0 0 0 0 0 0 0 0 0 0 0 0 0 0 0 0 0 0 0 0 0 0 0 0 0 0 0 0 0 0 0 0 0 0 0 0
0 0 0 0 0 0 0 0 0 0 0 0 0 0 0 0 0 0 0 0 0 0 0 0 0 0 0 0 0 0 0 0 0 0 0 0 0 0
0 0 0 0 0 0 0 0 0 0 0 0 0 0 0 0 0 0 0 0 0 0 0 0 0 0 0 0 0 0 0 0 0 0 0 0 0 0
0 0 0 0 0 0 0 0 0 0 0 0 0 0 0 0 0 0 0 0 0 0 0 0 0 0 0 0 0 0 0 0 0 0 0 0 0 0
0 0 0 0 0 0 0 0 0 0 0 0 0 0 0 0 0 0 0 0 0 0 0 0 0 0 0 0 0 0 0 0 0 0 0 -0 -0 0
0 0 0 0 0 0 0 0 0 0 0 0 0 0 0 0 0 0 0 0 0 0 0 0 0 0 0 0 0 0 0 0 0 0 0 -0 -0 0
0 0 0 0 0 0 0 0 0 0 0 0 0 0 0 0 0 0 0 0 0 0 0 0 0 0 0 0 0 0 0 0 0 0 -0 -0 0 0
0 0 0 0 0 0 0 0 0 0 0 0 0 0 0 0 0 0 0 0 0 0 0 0 0 0 0 0 0 0 0 0 0 0 -0 0 0 0
0 0 0 0 0 0 0 0 0 0 0 0 0 0 0 0 0 0 0 0 0 0 0 0 0 0 0 0 0 0 0 0 0 0 0 0 0 0
0 0 0 0 0 0 0 0 0 0 0 0 0 0 0 0 0 0 0 0 0 0 0 0 0 0 0 0 0 0 0 0 0 0 0 0 0 0
0 0 0 0 0 0 0 0 0 0 0 0 0 0 0 0 0 0 0 0 0 0 0 0 0 0 0 0 0 0 0 0 0 0 0 0 0 0
0 0 0 0 0 0 0 0 0 0 0 0 0 0 0 0 0 0 0 0 0 0 0 0 0 0 -0 0 0 0 0 0 0 0 0 0 0 0
0 0 0 0 0 0 0 0 0 0 0 0 0 0 0 0 0 0 0 0 0 0 0 0 -0 0 0 0 0 0 0 0 0 0 0 0 0 0
0 0 0 0 0 0 0 0 0 0 0 0 0 0 0 0 0 0 0 0 0 0 0 -0 -0 -0 0 0 0 0 0 0 0 0 0 0 0 0
0 0 0 0 0 0 0 0 0 0 0 -0 0 0 0 0 0 0 0 0 0 -0 -0 0 -0 0 0 0 0 0 0 0 0 0 0 0 0 0
0 0 0 0 0 0 0 0 0 0 0 -0 0 0 0 0 0 0 0 0 0 -0 0 0 0 0 0 0 0 0 0 0 0 0 0 0 0 0
0 0 0 0 0 0 0 0 0 0 -0 0 0 0 0 0 -0 0 0 0 0 0 0 0 0 0 0 0 0 0 0 0 0 0 0 0 0 0
0 0 0 0 0 0 0 0 0 -0 0 -0 0 0 0 0 -0 0 0 0 0 0 0 0 0 0 0 0 0 0 0 0 0 0 0 0 0 0
0 0 0 0 0 0 0 0 0 0 0 0 0 0 0 0 -0 -0 0 0 0 0 0 0 0 0 0 0 0 0 0 0 0 0 0 0 0 0
0 0 0 0 0 0 0 0 0 0 -0 -0 0 0 0 -0 0 0 0 0 0 0 0 0 0 0 0 0 0 0 0 0 0 0 0 0 0 0
0 0 0 0 0 0 0 0 0 0 -0 0 0 0 0 -0 0 0 0 0 0 0 0 0 0 0 0 0 0 0 0 0 0 0 0 0 0 0
0 0 0 0 0 0 0 0 0 0 0 0 0 0 0 -0 0 0 0 0 0 0 0 0 0 0 0 0 0 0 0 0 0 0 0 0 0 0
Wind_Speed_500mb
84 85 82 78 72 68 63 56 51 49 44 43 35 28 24 33 36 39 40 41 45 48 50 50 50 50 50 49 49 49 48 42 42 45 41 40 41 45
84 85 83 80 73 69 66 59 54 51 50 32 29 32 37 38 36 38 40 47 47 50 52 58 60 55 53 53 52 46 43 44 43 44 44 43 43 44
87 82 84 79 75 70 67 62 57 53 54 47 45 39 42 41 42 45 49 50 56 56 56 56 50 53 51 49 47 49 50 50 50 45 46 45 47 46
88 84 85 80 76 70 69 64 58 52 49 49 46 44 45 43 49 54 57 58 56 52 48 49 52 54 53 46 44 46 52 53 51 51 50 49 48 47
87 86 85 83 78 73 70 65 59 50 46 50 50 47 48 50 56 58 54 48 43 46 48 50 50 50 52 54 54 55 57 58 57 53 53 53 48 48
90 87 85 83 79 72 69 63 55 49 49 50 50 51 54 56 55 55 57 53 52 49 49 52 55 55 59 65 62 62 65 68 62 59 59 58 54 50
91 85 81 78 73 67 64 58 53 52 49 47 50 54 55 51 51 52 59 61 62 62 64 58 50 48 52 53 57 62 68 69 64 60 59 57 57 50
93 81 77 73 67 62 57 53 51 47 47 46 47 48 50 51 51 56 63 71 85 67 58 63 62 67 62 55 48 54 58 59 62 62 58 54 54 46
88 78 73 70 64 60 56 51 48 43 40 38 46 50 54 50 56 64 67 71 78 77 78 89 74 74 65 62 54 49 49 52 52 65 62 50 51 44
80 71 70 70 64 58 51 47 47 44 42 46 51 49 49 52 57 59 69 79 86 85 75 88 75 71 66 59 49 45 50 50 50 50 53 51 50 47
72 67 65 61 57 54 51 49 43 41 43 43 41 42 48 50 52 61 74 79 89 86 81 78 72 67 54 46 41 43 48 50 49 47 50 49 50 41
66 64 60 56 52 51 46 40 37 37 36 33 35 41 43 48 48 54 66 71 79 77 41 42 51 51 34 34 34 45 51 50 44 47 50 49 50 47
71 68 61 53 50 43 36 32 29 26 25 27 35 42 46 46 48 54 59 63 69 77 71 49 38 34 29 30 38 51 50 49 50 49 47 56 52 53
77 68 59 52 43 35 32 25 20 19 21 27 36 43 45 48 52 55 50 52 43 55 47 46 45 46 38 50 49 51 52 54 54 55 65 57 72 53
65 57 51 45 37 31 24 17 16 17 19 26 34 40 42 49 48 50 45 30 27 25 13 32 54 52 48 60 58 63 60 52 53 65 57 66 65 61
57 52 47 41 31 23 19 15 12 14 18 25 32 32 40 43 42 41 37 30 41 28 35 51 47 50 50 52 66 67 60 48 66 59 59 66 69 59
62 55 49 41 33 22 16 13 12 12 16 21 24 35 39 42 39 37 31 35 48 42 45 54 47 35 44 64 67 59 56 65 70 64 63 70 61 44
56 53 44 34 24 20 17 15 7 8 11 14 21 34 38 43 38 36 29 39 54 63 60 58 51 53 60 50 46 65 50 68 70 62 61 64 59 50
48 43 34 29 25 22 17 9 2 9 14 16 20 31 35 37 36 39 33 40 47 65 65 59 61 69 67 60 57 52 71 75 68 68 63 56 56 47
37 31 30 30 26 22 14 9 10 12 12 14 16 28 33 37 37 38 38 36 42 49 65 64 67 72 67 52 67 57 62 74 70 65 60 49 44 39
34 31 28 29 26 19 16 15 12 11 15 12 15 25 32 34 34 35 32 36 39 38 47 56 58 49 62 64 68 61 63 58 57 59 58 57 54 51
36 33 30 28 23 21 17 16 13 11 13 16 19 20 28 31 32 32 33 40 32 36 38 45 48 54 51 60 63 63 62 56 49 45 51 44 48 39
36 33 32 25 23 20 17 16 12 10 14 20 24 22 23 26 26 29 28 31 32 25 31 36 35 48 63 69 70 66 63 58 54 50 39 38 22 19
Wind_Direction_500mb
251 248 246 247 245 247 247 244 240 240 248 254 248 250 250 270 267 266 264 267 271 270 267 265 269 270 267 267 265 264 266 265 265 262 259 260 259 249
249 246 243 243 241 242 245 246 244 244 248 258 256 269 280 279 278 276 275 282 278 277 273 274 275 267 265 265 263 259 258 257 266 260 257 257 257 253
247 244 242 240 239 239 242 243 243 245 252 257 267 276 278 280 281 282 287 285 285 282 280 277 271 267 266 264 260 252 252 257 265 258 256 259 253 253
248 243 240 236 237 239 243 244 246 248 252 264 272 276 278 284 288 290 292 292 289 282 278 274 271 266 259 258 253 252 259 265 269 255 253 257 253 251
251 243 239 234 235 237 239 242 244 244 254 263 273 278 285 289 291 292 294 294 283 282 277 274 272 267 258 258 258 259 261 262 266 255 255 251 252 242
250 243 240 236 236 236 237 239 239 245 251 261 271 280 286 289 290 294 297 295 295 287 285 280 275 268 260 257 257 253 256 258 255 251 250 246 248 241
244 240 238 236 237 236 235 235 239 245 253 263 271 278 281 286 292 299 301 302 297 294 292 289 287 278 272 264 258 253 253 252 245 244 242 238 239 239
240 235 233 231 229 228 231 236 241 248 258 265 270 275 285 293 296 299 299 299 298 298 296 292 293 289 285 276 264 249 246 250 242 234 240 228 233 235
236 230 226 222 221 222 227 233 240 249 257 267 276 282 288 291 295 298 296 293 289 293 293 287 285 278 275 269 266 253 238 236 237 233 228 225 227 213
232 225 218 216 214 217 220 225 233 245 258 266 275 281 284 291 296 297 294 291 291 289 285 272 277 273 269 260 253 240 223 221 224 221 219 216 211 199
226 216 212 211 210 213 222 232 240 251 264 271 276 281 288 294 292 294 289 292 288 285 289 269 272 264 255 253 241 223 208 211 214 209 211 201 195 192
213 204 204 205 208 217 227 233 247 263 263 269 274 286 296 296 295 292 297 292 289 288 305 253 265 250 243 237 215 196 199 200 198 199 198 191 181 181
200 193 194 200 211 219 225 243 252 258 269 284 298 304 309 309 311 311 312 305 297 285 290 264 261 222 202 187 188 182 182 179 185 180 180 174 179 167
194 192 193 199 204 212 226 232 247 270 286 297 305 315 321 325 327 324 324 324 319 317 308 242 224 192 176 159 154 163 168 172 177 173 167 172 166 170
194 191 193 193 199 201 215 231 253 274 292 306 320 326 333 335 335 336 336 341 341 327 297 171 179 175 176 161 152 161 158 168 171 162 168 166 164 173
187 183 185 188 192 199 212 236 247 276 307 321 329 334 342 347 357 352 355 23 36 100 106 143 165 170 160 157 156 156 163 153 157 164 161 168 172 178
174 176 179 184 189 199 198 211 242 297 320 330 340 351 354 359 11 7 20 51 68 134 115 146 143 139 164 159 146 153 151 148 151 162 169 168 177 180
177 176 179 184 186 181 184 206 258 327 13 8 2 355 360 14 20 25 51 78 80 105 132 140 147 132 132 144 151 144 153 153 160 166 163 166 180 182
177 176 180 178 172 175 184 190 143 59 55 32 2 1 11 25 32 34 59 90 93 113 120 136 137 128 124 125 145 166 155 156 164 168 172 175 172 175
177 182 177 174 171 174 172 150 111 83 60 42 0 11 21 29 35 46 48 85 100 127 132 139 143 142 131 127 129 150 165 161 163 162 169 172 167 157
174 177 175 169 164 169 161 141 116 81 47 27 5 14 27 34 38 49 48 68 99 114 130 140 143 148 153 150 142 152 164 167 164 166 165 164 157 158
169 173 172 169 165 168 154 142 122 85 51 30 20 22 28 36 36 45 46 59 75 96 118 134 142 152 155 164 152 153 156 157 161 162 158 163 162 170
161 169 167 164 161 161 154 145 122 82 42 30 22 25 24 37 37 43 55 66 86 109 117 132 139 149 151 160 158 157 153 154 157 160 158 155 158 165
Wind_Speed_850mb
84 85 82 78 72 68 63 56 51 49 44 43 35 28 24 33 36 39 40 41 45 48 50 50 50 50 50 49 49 49 48 42 42 45 41 40 41 45
84 85 83 80 73 69 66 59 54 51 50 32 29 32 37 38 36 38 40 47 47 50 52 58 60 55 53 53 52 46 43 44 43 44 44 43 43 44
87 82 84 79 75 70 67 62 57 53 54 47 45 39 42 41 42 45 49 50 56 56 56 56 50 53 51 49 47 49 50 50 50 45 46 45 47 46
88 84 85 80 76 70 69 64 58 52 49 49 46 44 45 43 49 54 57 58 56 52 48 49 52 54 53 46 44 46 52 53 51 51 50 49 48 47
87 86 85 83 78 73 70 65 59 50 46 50 50 47 48 50 56 58 54 48 43 46 48 50 50 50 52 54 54 55 57 58 57 53 53 53 48 48
90 87 85 83 79 72 69 63 55 49 49 50 50 51 54 56 55 55 57 53 52 49 49 52 55 55 59 65 62 62 65 68 62 59 59 58 54 50
91 85 81 78 73 67 64 58 53 52 49 47 50 54 55 51 51 52 59 61 62 62 64 58 50 48 52 53 57 62 68 69 64 60 59 57 57 50
93 81 77 73 67 62 57 53 51 47 47 46 47 48 50 51 51 56 63 71 85 67 58 63 62 67 62 55 48 54 58 59 62 62 58 54 54 46
88 78 73 70 64 60 56 51 48 43 40 38 46 50 54 50 56 64 67 71 78 77 78 89 74 74 65 62 54 49 49 52 52 65 62 50 51 44
80 71 70 70 64 58 51 47 47 44 42 46 51 49 49 52 57 59 69 79 86 85 75 88 75 71 66 59 49 45 50 50 50 50 53 51 50 47
72 67 65 61 57 54 51 49 43 41 43 43 41 42 48 50 52 61 74 79 89 86 81 78 72 67 54 46 41 43 48 50 49 47 50 49 50 41
66 64 60 56 52 51 46 40 37 37 36 33 35 41 43 48 48 54 66 71 79 77 41 42 51 51 34 34 34 45 51 50 44 47 50 49 50 47
71 68 61 53 50 43 36 32 29 26 25 27 35 42 46 46 48 54 59 63 69 77 71 49 38 34 29 30 38 51 50 49 50 49 47 56 52 53
77 68 59 52 43 35 32 25 20 19 21 27 36 43 45 48 52 55 50 52 43 55 47 46 45 46 38 50 49 51 52 54 54 55 65 57 72 53
65 57 51 45 37 31 24 17 16 17 19 26 34 40 42 49 48 50 45 30 27 25 13 32 54 52 48 60 58 63 60 52 53 65 57 66 65 61
57 52 47 41 31 23 19 15 12 14 18 25 32 32 40 43 42 41 37 30 41 28 35 51 47 50 50 52 66 67 60 48 66 59 59 66 69 59
62 55 49 41 33 22 16 13 12 12 16 21 24 35 39 42 39 37 31 35 48 42 45 54 47 35 44 64 67 59 56 65 70 64 63 70 61 44
56 53 44 34 24 20 17 15 7 8 11 14 21 34 38 43 38 36 29 39 54 63 60 58 51 53 60 50 46 65 50 68 70 62 61 64 59 50
48 43 34 29 25 22 17 9 2 9 14 16 20 31 35 37 36 39 33 40 47 65 65 59 61 69 67 60 57 52 71 75 68 68 63 56 56 47
37 31 30 30 26 22 14 9 10 12 12 14 16 28 33 37 37 38 38 36 42 49 65 64 67 72 67 52 67 57 62 74 70 65 60 49 44 39
34 31 28 29 26 19 16 15 12 11 15 12 15 25 32 34 34 35 32 36 39 38 47 56 58 49 62 64 68 61 63 58 57 59 58 57 54 51
36 33 30 28 23 21 17 16 13 11 13 16 19 20 28 31 32 32 33 40 32 36 38 45 48 54 51 60 63 63 62 56 49 45 51 44 48 39
36 33 32 25 23 20 17 16 12 10 14 20 24 22 23 26 26 29 28 31 32 25 31 36 35 48 63 69 70 66 63 58 54 50 39 38 22 19
Wind_Direction_850mb
251 248 246 247 245 247 247 244 240 240 248 254 248 250 250 270 267 266 264 267 271 270 267 265 269 270 267 267 265 264 266 265 265 262 259 260 259 249
249 246 243 243 241 242 245 246 244 244 248 258 256 269 280 279 278 276 275 282 278 277 273 274 275 267 265 265 263 259 258 257 266 260 257 257 257 253
247 244 242 240 239 239 242 243 243 245 252 257 267 276 278 280 281 282 287 285 285 282 280 277 271 267 266 264 260 252 252 257 265 258 256 259 253 253
248 243 240 236 237 239 243 244 246 248 252 264 272 276 278 284 288 290 292 292 289 282 278 274 271 266 259 258 253 252 259 265 269 255 253 257 253 251
251 243 239 234 235 237 239 242 244 244 254 263 273 278 285 289 291 292 294 294 283 282 277 274 272 267 258 258 258 259 261 262 266 255 255 251 252 242
250 243 240 236 236 236 237 239 239 245 251 261 271 280 286 289 290 294 297 295 295 287 285 280 275 268 260 257 257 253 256 258 255 251 250 246 248 241
244 240 238 236 237 236 235 235 239 245 253 263 271 278 281 286 292 299 301 302 297 294 292 289 287 278 272 264 258 253 253 252 245 244 242 238 239 239
240 235 233 231 229 228 231 236 241 248 258 265 270 275 285 293 296 299 299 299 298 298 296 292 293 289 285 276 264 249 246 250 242 234 240 228 233 235
236 230 226 222 221 222 227 233 240 249 257 267 276 282 288 291 295 298 296 293 289 293 293 287 285 278 275 269 266 253 238 236 237 233 228 225 227 213
232 225 218 216 214 217 220 225 233 245 258 266 275 281 284 291 296 297 294 291 291 289 285 272 277 273 269 260 253 240 223 221 224 221 219 216 211 199
226 216 212 211 210 213 222 232 240 251 264 271 276 281 288 294 292 294 289 292 288 285 289 269 272 264 255 253 241 223 208 211 214 209 211 201 195 192
213 204 204 205 208 217 227 233 247 263 263 269 274 286 296 296 295 292 297 292 289 288 305 253 265 250 243 237 215 196 199 200 198 199 198 191 181 181
200 193 194 200 211 219 225 243 252 258 269 284 298 304 309 309 311 311 312 305 297 285 290 264 261 222 202 187 188 182 182 179 185 180 180 174 179 167
194 192 193 199 204 212 226 232 247 270 286 297 305 315 321 325 327 324 324 324 319 317 308 242 224 192 176 159 154 163 168 172 177 173 167 172 166 170
194 191 193 193 199 201 215 231 253 274 292 306 320 326 333 335 335 336 336 341 341 327 297 171 179 175 176 161 152 161 158 168 171 162 168 166 164 173
187 183 185 188 192 199 212 236 247 276 307 321 329 334 342 347 357 352 355 23 36 100 106 143 165 170 160 157 156 156 163 153 157 164 161 168 172 178
174 176 179 184 189 199 198 211 242 297 320 330 340 351 354 359 11 7 20 51 68 134 115 146 143 139 164 159 146 153 151 148 151 162 169 168 177 180
177 176 179 184 186 181 184 206 258 327 13 8 2 355 360 14 20 25 51 78 80 105 132 140 147 132 132 144 151 144 153 153 160 166 163 166 180 182
177 176 180 178 172 175 184 190 143 59 55 32 2 1 11 25 32 34 59 90 93 113 120 136 137 128 124 125 145 166 155 156 164 168 172 175 172 175
177 182 177 174 171 174 172 150 111 83 60 42 0 11 21 29 35 46 48 85 100 127 132 139 143 142 131 127 129 150 165 161 163 162 169 172 167 157
174 177 175 169 164 169 161 141 116 81 47 27 5 14 27 34 38 49 48 68 99 114 130 140 143 148 153 150 142 152 164 167 164 166 165 164 157 158
169 173 172 169 165 168 154 142 122 85 51 30 20 22 28 36 36 45 46 59 75 96 118 134 142 152 155 164 152 153 156 157 161 162 158 163 162 170
161 169 167 164 161 161 154 145 122 82 42 30 22 25 24 37 37 43 55 66 86 109 117 132 139 149 151 160 158 157 153 154 157 160 158 155 158 165